Wetterdaten: Mittwoch, 30.05.2012
Datum Zeit Temperatur Luftfeuchte Regen Wind Richtung Richtung Taupunkt Windchill Windben
30.05.2012 00:00 10,2 C 78 % 0,0 l/m 0,2 km/h (0 Bft) W 270 6,5 C 10,2 C 0,0 km/h (0 Bft)
30.05.2012 00:05 10,2 C 78 % 0,0 l/m 0,3 km/h (0 Bft) S 180 6,5 C 10,3 C 1,6 km/h (1 Bft)
30.05.2012 00:10 10,4 C 79 % 0,0 l/m 0,6 km/h (0 Bft) S-SO 157 6,9 C 10,6 C 0,0 km/h (0 Bft)
30.05.2012 00:15 10,6 C 79 % 0,0 l/m 0,6 km/h (0 Bft) N-NO 22 7,1 C 10,8 C 2,7 km/h (1 Bft)
30.05.2012 00:20 10,7 C 78 % 0,0 l/m 0,5 km/h (0 Bft) O-SO 112 7,0 C 11,0 C 3,1 km/h (1 Bft)
30.05.2012 00:25 10,6 C 78 % 0,0 l/m 0,6 km/h (0 Bft) S-SW 202 6,9 C 11,1 C 0,0 km/h (0 Bft)
30.05.2012 00:30 10,7 C 78 % 0,0 l/m 0,6 km/h (0 Bft) O-SO 112 7,0 C 11,1 C 4,3 km/h (1 Bft)
30.05.2012 00:35 10,7 C 78 % 0,0 l/m 0,3 km/h (0 Bft) SW 225 7,0 C 11,1 C 0,0 km/h (0 Bft)
30.05.2012 00:40 10,5 C 78 % 0,0 l/m 0,3 km/h (0 Bft) W-SW 247 6,8 C 10,9 C 0,0 km/h (0 Bft)
30.05.2012 00:45 10,3 C 78 % 0,0 l/m 0,6 km/h (0 Bft) NW 315 6,6 C 10,7 C 3,5 km/h (1 Bft)
30.05.2012 00:50 10,4 C 78 % 0,0 l/m 1,1 km/h (1 Bft) S-SW 202 6,7 C 10,7 C 4,5 km/h (1 Bft)
30.05.2012 00:55 10,2 C 78 % 0,0 l/m 0,8 km/h (0 Bft) S 180 6,5 C 10,6 C 0,0 km/h (0 Bft)
30.05.2012 01:00 10,1 C 77 % 0,0 l/m 0,3 km/h (0 Bft) O 90 6,3 C 10,4 C 2,7 km/h (1 Bft)
30.05.2012 01:05 10,1 C 77 % 0,0 l/m 1,0 km/h (0 Bft) NO 45 6,3 C 10,4 C 4,0 km/h (1 Bft)
30.05.2012 01:10 10,2 C 77 % 0,0 l/m 1,6 km/h (1 Bft) S-SO 157 6,4 C 10,6 C 5,6 km/h (1 Bft)
30.05.2012 01:15 10,2 C 77 % 0,0 l/m 1,3 km/h (1 Bft) N 360 6,4 C 10,5 C 0,0 km/h (0 Bft)
30.05.2012 01:20 10,0 C 77 % 0,0 l/m 0,5 km/h (0 Bft) NO 45 6,2 C 10,2 C 1,8 km/h (1 Bft)
30.05.2012 01:25 10,0 C 76 % 0,0 l/m 0,5 km/h (0 Bft) NO 45 6,0 C 10,2 C 3,2 km/h (1 Bft)
30.05.2012 01:30 10,0 C 77 % 0,0 l/m 1,0 km/h (0 Bft) O-NO 67 6,2 C 10,2 C 1,6 km/h (1 Bft)
30.05.2012 01:35 10,1 C 77 % 0,0 l/m 1,4 km/h (1 Bft) W-NW 292 6,3 C 10,2 C 2,4 km/h (1 Bft)
30.05.2012 01:40 9,9 C 77 % 0,0 l/m 1,1 km/h (1 Bft) NW 315 6,1 C 10,2 C 6,1 km/h (2 Bft)
30.05.2012 01:45 9,7 C 77 % 0,0 l/m 0,5 km/h (0 Bft) S-SO 157 5,9 C 10,0 C 0,0 km/h (0 Bft)
30.05.2012 01:50 9,7 C 77 % 0,0 l/m 0,2 km/h (0 Bft) SO 135 5,9 C 9,8 C 0,0 km/h (0 Bft)
30.05.2012 01:55 9,7 C 77 % 0,0 l/m 0,3 km/h (0 Bft) NO 45 5,9 C 9,7 C 0,0 km/h (0 Bft)
30.05.2012 02:00 9,5 C 77 % 0,0 l/m 0,3 km/h (0 Bft) S-SO 157 5,7 C 9,6 C 0,0 km/h (0 Bft)
30.05.2012 02:05 9,5 C 77 % 0,0 l/m 0,2 km/h (0 Bft) O 90 5,7 C 9,4 C 0,0 km/h (0 Bft)
30.05.2012 02:10 9,4 C 77 % 0,0 l/m 0,3 km/h (0 Bft) S-SO 157 5,6 C 9,3 C 2,3 km/h (1 Bft)
30.05.2012 02:15 9,5 C 77 % 0,0 l/m 0,5 km/h (0 Bft) SO 135 5,7 C 9,4 C 0,0 km/h (0 Bft)
30.05.2012 02:20 9,4 C 78 % 0,0 l/m 0,3 km/h (0 Bft) S 180 5,8 C 9,4 C 0,0 km/h (0 Bft)
30.05.2012 02:25 9,4 C 78 % 0,0 l/m 0,2 km/h (0 Bft) S-SO 157 5,8 C 9,4 C 0,0 km/h (0 Bft)
30.05.2012 02:30 9,5 C 78 % 0,0 l/m 0,2 km/h (0 Bft) N 360 5,9 C 9,4 C 0,0 km/h (0 Bft)
30.05.2012 02:35 9,5 C 78 % 0,0 l/m 0,0 km/h (0 Bft) N 360 5,9 C 9,4 C 0,0 km/h (0 Bft)
30.05.2012 02:40 9,4 C 78 % 0,0 l/m 0,0 km/h (0 Bft) O 90 5,8 C 9,4 C 0,0 km/h (0 Bft)
30.05.2012 02:45 9,4 C 78 % 0,0 l/m 0,0 km/h (0 Bft) S 180 5,8 C 9,2 C 0,0 km/h (0 Bft)
30.05.2012 02:50 9,5 C 78 % 0,0 l/m 0,3 km/h (0 Bft) N-NW 337 5,9 C 9,2 C 0,0 km/h (0 Bft)
30.05.2012 02:55 9,5 C 78 % 0,0 l/m 0,3 km/h (0 Bft) S 180 5,9 C 9,1 C 0,0 km/h (0 Bft)
30.05.2012 03:00 9,1 C 78 % 0,0 l/m 0,0 km/h (0 Bft) N 360 5,5 C 9,0 C 0,0 km/h (0 Bft)
30.05.2012 03:05 9,3 C 80 % 0,0 l/m 0,2 km/h (0 Bft) O-SO 112 6,0 C 9,0 C 0,0 km/h (0 Bft)
30.05.2012 03:10 9,2 C 79 % 0,0 l/m 0,2 km/h (0 Bft) N-NO 22 5,8 C 8,9 C 0,0 km/h (0 Bft)
30.05.2012 03:15 9,2 C 79 % 0,0 l/m 0,0 km/h (0 Bft) SO 135 5,8 C 8,9 C 0,0 km/h (0 Bft)
30.05.2012 03:20 9,2 C 79 % 0,0 l/m 0,0 km/h (0 Bft) NO 45 5,8 C 8,9 C 0,0 km/h (0 Bft)
30.05.2012 03:25 9,3 C 79 % 0,0 l/m 0,2 km/h (0 Bft) W 270 5,8 C 9,0 C 0,0 km/h (0 Bft)
30.05.2012 03:30 9,3 C 79 % 0,0 l/m 0,2 km/h (0 Bft) S-SO 157 5,8 C 9,1 C 0,0 km/h (0 Bft)
30.05.2012 03:35 9,3 C 79 % 0,0 l/m 0,0 km/h (0 Bft) N-NO 22 5,8 C 9,1 C 0,0 km/h (0 Bft)
30.05.2012 03:40 9,5 C 79 % 0,0 l/m 0,0 km/h (0 Bft) W-NW 292 6,0 C 9,1 C 0,0 km/h (0 Bft)
30.05.2012 03:45 9,4 C 79 % 0,0 l/m 0,0 km/h (0 Bft) N 360 5,9 C 9,1 C 0,0 km/h (0 Bft)
30.05.2012 03:50 9,4 C 79 % 0,0 l/m 0,0 km/h (0 Bft) O-NO 67 5,9 C 9,1 C 0,0 km/h (0 Bft)
30.05.2012 03:55 9,3 C 79 % 0,0 l/m 0,0 km/h (0 Bft) O-NO 67 5,8 C 9,1 C 0,0 km/h (0 Bft)
30.05.2012 04:00 9,2 C 79 % 0,0 l/m 0,3 km/h (0 Bft) S 180 5,8 C 9,0 C 0,0 km/h (0 Bft)
30.05.2012 04:05 8,9 C 79 % 0,0 l/m 0,3 km/h (0 Bft) SO 135 5,5 C 8,8 C 0,0 km/h (0 Bft)
30.05.2012 04:10 8,9 C 80 % 0,0 l/m 0,0 km/h (0 Bft) O-SO 112 5,6 C 8,6 C 0,0 km/h (0 Bft)
30.05.2012 04:15 8,6 C 79 % 0,0 l/m 0,2 km/h (0 Bft) S-SO 157 5,2 C 8,4 C 0,0 km/h (0 Bft)
30.05.2012 04:20 8,5 C 80 % 0,0 l/m 0,2 km/h (0 Bft) NO 45 5,3 C 8,2 C 0,0 km/h (0 Bft)
30.05.2012 04:25 8,7 C 81 % 0,0 l/m 0,5 km/h (0 Bft) S 180 5,6 C 8,4 C 2,9 km/h (1 Bft)
30.05.2012 04:30 9,0 C 81 % 0,0 l/m 0,6 km/h (0 Bft) S 180 5,9 C 8,7 C 0,0 km/h (0 Bft)
30.05.2012 04:35 8,9 C 81 % 0,0 l/m 0,5 km/h (0 Bft) O 90 5,8 C 8,8 C 0,0 km/h (0 Bft)
30.05.2012 04:40 8,9 C 80 % 0,0 l/m 0,3 km/h (0 Bft) W-NW 292 5,6 C 9,0 C 0,0 km/h (0 Bft)
30.05.2012 04:45 8,9 C 80 % 0,0 l/m 0,6 km/h (0 Bft) S 180 5,6 C 8,9 C 0,0 km/h (0 Bft)
30.05.2012 04:50 8,7 C 80 % 0,0 l/m 0,3 km/h (0 Bft) SO 135 5,4 C 8,8 C 0,0 km/h (0 Bft)
30.05.2012 04:55 8,7 C 80 % 0,0 l/m 0,0 km/h (0 Bft) O 90 5,4 C 8,7 C 0,0 km/h (0 Bft)
30.05.2012 05:00 8,9 C 80 % 0,0 l/m 0,2 km/h (0 Bft) SO 135 5,6 C 8,7 C 0,0 km/h (0 Bft)
30.05.2012 05:05 8,9 C 80 % 0,0 l/m 0,2 km/h (0 Bft) O 90 5,6 C 8,7 C 0,0 km/h (0 Bft)
30.05.2012 05:10 8,9 C 80 % 0,0 l/m 0,0 km/h (0 Bft) S 180 5,6 C 8,7 C 0,0 km/h (0 Bft)
30.05.2012 05:15 8,9 C 80 % 0,0 l/m 0,0 km/h (0 Bft) N 360 5,6 C 8,7 C 0,0 km/h (0 Bft)
30.05.2012 05:20 9,4 C 80 % 0,0 l/m 0,3 km/h (0 Bft) NO 45 6,1 C 8,8 C 0,0 km/h (0 Bft)
30.05.2012 05:25 9,5 C 79 % 0,0 l/m 0,3 km/h (0 Bft) NO 45 6,0 C 8,9 C 0,0 km/h (0 Bft)
30.05.2012 05:30 9,4 C 79 % 0,0 l/m 0,3 km/h (0 Bft) SO 135 5,9 C 9,1 C 0,0 km/h (0 Bft)
30.05.2012 05:35 9,2 C 79 % 0,0 l/m 0,3 km/h (0 Bft) SO 135 5,8 C 9,0 C 0,0 km/h (0 Bft)
30.05.2012 05:40 9,0 C 80 % 0,0 l/m 0,2 km/h (0 Bft) NO 45 5,7 C 8,8 C 0,0 km/h (0 Bft)
30.05.2012 05:45 8,8 C 80 % 0,0 l/m 0,0 km/h (0 Bft) NO 45 5,5 C 8,7 C 0,0 km/h (0 Bft)
30.05.2012 05:50 8,8 C 81 % 0,0 l/m 0,6 km/h (0 Bft) NO 45 5,7 C 8,7 C 2,6 km/h (1 Bft)
30.05.2012 05:55 8,7 C 81 % 0,0 l/m 1,0 km/h (0 Bft) SO 135 5,6 C 8,7 C 0,0 km/h (0 Bft)
30.05.2012 06:00 8,8 C 82 % 0,0 l/m 0,6 km/h (0 Bft) O-SO 112 5,9 C 8,7 C 0,0 km/h (0 Bft)
30.05.2012 06:05 8,8 C 81 % 0,0 l/m 0,3 km/h (0 Bft) S-SO 157 5,7 C 8,7 C 2,1 km/h (1 Bft)
30.05.2012 06:10 9,1 C 81 % 0,0 l/m 0,3 km/h (0 Bft) S 180 6,0 C 8,8 C 0,0 km/h (0 Bft)
30.05.2012 06:15 9,0 C 81 % 0,0 l/m 0,5 km/h (0 Bft) N-NO 22 5,9 C 8,8 C 0,0 km/h (0 Bft)
30.05.2012 06:20 8,9 C 81 % 0,0 l/m 0,5 km/h (0 Bft) S-SO 157 5,8 C 8,9 C 2,3 km/h (1 Bft)
30.05.2012 06:25 9,0 C 80 % 0,0 l/m 0,2 km/h (0 Bft) W-SW 247 5,7 C 9,0 C 0,0 km/h (0 Bft)
30.05.2012 06:30 8,9 C 80 % 0,0 l/m 0,2 km/h (0 Bft) SO 135 5,6 C 9,0 C 0,0 km/h (0 Bft)
30.05.2012 06:35 9,0 C 80 % 0,0 l/m 0,2 km/h (0 Bft) O-SO 112 5,7 C 9,0 C 0,0 km/h (0 Bft)
30.05.2012 06:40 10,5 C 78 % 0,0 l/m 0,2 km/h (0 Bft) S-SO 157 6,8 C 10,0 C 0,0 km/h (0 Bft)
30.05.2012 06:45 10,9 C 78 % 0,0 l/m 0,3 km/h (0 Bft) S-SO 157 7,2 C 10,7 C 1,6 km/h (1 Bft)
30.05.2012 06:50 12,5 C 76 % 0,0 l/m 0,3 km/h (0 Bft) S-SO 157 8,4 C 11,8 C 0,0 km/h (0 Bft)
30.05.2012 06:55 13,7 C 71 % 0,0 l/m 0,2 km/h (0 Bft) S 180 8,5 C 13,2 C 2,6 km/h (1 Bft)
30.05.2012 07:00 14,3 C 69 % 0,0 l/m 0,8 km/h (0 Bft) S-SO 157 8,8 C 14,8 C 1,9 km/h (1 Bft)
30.05.2012 07:05 15,0 C 65 % 0,0 l/m 0,8 km/h (0 Bft) S-SW 202 8,5 C 15,2 C 0,0 km/h (0 Bft)
30.05.2012 07:10 16,4 C 64 % 0,0 l/m 0,2 km/h (0 Bft) S 180 9,6 C 17,0 C 0,0 km/h (0 Bft)
30.05.2012 07:15 16,8 C 64 % 0,0 l/m 0,2 km/h (0 Bft) O-SO 112 10,0 C 17,5 C 0,0 km/h (0 Bft)
30.05.2012 07:20 17,7 C 60 % 0,0 l/m 0,3 km/h (0 Bft) S-SW 202 9,8 C 18,6 C 0,0 km/h (0 Bft)
30.05.2012 07:25 17,8 C 58 % 0,0 l/m 0,3 km/h (0 Bft) NO 45 9,4 C 19,1 C 0,0 km/h (0 Bft)
30.05.2012 07:30 18,4 C 57 % 0,0 l/m 0,2 km/h (0 Bft) N-NO 22 9,7 C 20,1 C 0,0 km/h (0 Bft)
30.05.2012 07:35 18,9 C 55 % 0,0 l/m 0,3 km/h (0 Bft) O-SO 112 9,7 C 20,6 C 5,0 km/h (1 Bft)
30.05.2012 07:40 19,4 C 56 % 0,0 l/m 0,6 km/h (0 Bft) S 180 10,4 C 20,6 C 0,0 km/h (0 Bft)
30.05.2012 07:45 19,6 C 53 % 0,0 l/m 0,6 km/h (0 Bft) NO 45 9,8 C 21,0 C 0,0 km/h (0 Bft)
30.05.2012 07:50 19,7 C 54 % 0,0 l/m 0,2 km/h (0 Bft) N 360 10,1 C 21,8 C 0,0 km/h (0 Bft)
30.05.2012 07:55 20,4 C 53 % 0,0 l/m 0,3 km/h (0 Bft) O-SO 112 10,5 C 22,0 C 0,0 km/h (0 Bft)
30.05.2012 08:00 21,3 C 53 % 0,0 l/m 0,3 km/h (0 Bft) S-SW 202 11,3 C 22,7 C 0,0 km/h (0 Bft)
30.05.2012 08:05 19,6 C 53 % 0,0 l/m 0,2 km/h (0 Bft) W-SW 247 9,8 C 22,6 C 0,0 km/h (0 Bft)
30.05.2012 08:10 19,2 C 55 % 0,0 l/m 0,2 km/h (0 Bft) N-NW 337 9,9 C 21,2 C 0,0 km/h (0 Bft)
30.05.2012 08:15 18,6 C 56 % 0,0 l/m 0,0 km/h (0 Bft) N-NO 22 9,6 C 21,2 C 0,0 km/h (0 Bft)
30.05.2012 08:20 21,0 C 54 % 0,0 l/m 0,0 km/h (0 Bft) O-SO 112 11,3 C 22,0 C 0,0 km/h (0 Bft)
30.05.2012 08:25 21,6 C 53 % 0,0 l/m 0,0 km/h (0 Bft) S 180 11,6 C 23,2 C 0,0 km/h (0 Bft)
30.05.2012 08:30 21,9 C 48 % 0,0 l/m 0,0 km/h (0 Bft) S-SO 157 10,9 C 24,3 C 0,0 km/h (0 Bft)
30.05.2012 08:35 21,8 C 49 % 0,0 l/m 0,2 km/h (0 Bft) S 180 11,5 C 24,7 C 0,0 km/h (0 Bft)
30.05.2012 08:40 21,7 C 46 % 0,0 l/m 0,5 km/h (0 Bft) O-SO 112 11,6 C 25,4 C 0,0 km/h (0 Bft)
30.05.2012 08:45 21,8 C 46 % 0,0 l/m 0,5 km/h (0 Bft) S 180 11,3 C 26,1 C 0,0 km/h (0 Bft)
30.05.2012 08:50 21,8 C 45 % 0,0 l/m 0,5 km/h (0 Bft) O-SO 112 11,7 C 26,6 C 6,3 km/h (2 Bft)
30.05.2012 08:55 22,1 C 45 % 0,0 l/m 1,3 km/h (1 Bft) SO 135 11,7 C 26,7 C 3,9 km/h (1 Bft)
30.05.2012 09:00 22,2 C 41 % 0,0 l/m 3,7 km/h (1 Bft) O-SO 112 9,8 C 25,6 C 10,6 km/h (2 Bft)
30.05.2012 09:05 22,0 C 43 % 0,0 l/m 5,3 km/h (1 Bft) S 180 9,6 C 24,6 C 7,7 km/h (2 Bft)
30.05.2012 09:10 21,7 C 43 % 0,0 l/m 5,3 km/h (1 Bft) S-SO 157 8,7 C 23,0 C 4,2 km/h (1 Bft)
30.05.2012 09:15 22,0 C 43 % 0,0 l/m 4,5 km/h (1 Bft) S 180 9,5 C 23,0 C 6,9 km/h (2 Bft)
30.05.2012 09:20 22,4 C 40 % 0,0 l/m 5,1 km/h (1 Bft) S-SO 157 9,2 C 23,7 C 8,2 km/h (2 Bft)
30.05.2012 09:25 21,4 C 45 % 0,0 l/m 5,8 km/h (2 Bft) S 180 9,0 C 23,2 C 4,8 km/h (1 Bft)
30.05.2012 09:30 19,9 C 48 % 0,0 l/m 5,0 km/h (1 Bft) O-SO 112 8,6 C 21,7 C 3,7 km/h (1 Bft)
30.05.2012 09:35 19,8 C 49 % 0,0 l/m 4,7 km/h (1 Bft) S 180 8,8 C 21,0 C 3,7 km/h (1 Bft)
30.05.2012 09:40 19,4 C 51 % 0,0 l/m 4,8 km/h (1 Bft) SO 135 9,0 C 20,2 C 3,7 km/h (1 Bft)
30.05.2012 09:45 19,5 C 52 % 0,0 l/m 4,8 km/h (1 Bft) S 180 9,4 C 20,0 C 5,0 km/h (1 Bft)
30.05.2012 09:50 19,3 C 51 % 0,0 l/m 5,0 km/h (1 Bft) SO 135 8,9 C 20,0 C 8,2 km/h (2 Bft)
30.05.2012 09:55 19,7 C 53 % 0,0 l/m 5,1 km/h (1 Bft) O-SO 112 9,8 C 20,0 C 9,7 km/h (2 Bft)
30.05.2012 10:00 19,5 C 53 % 0,0 l/m 4,7 km/h (1 Bft) S 180 9,7 C 20,2 C 6,3 km/h (2 Bft)
30.05.2012 10:05 19,7 C 53 % 0,0 l/m 4,0 km/h (1 Bft) S 180 9,8 C 20,2 C 2,7 km/h (1 Bft)
30.05.2012 10:10 19,8 C 54 % 0,0 l/m 2,9 km/h (1 Bft) O-SO 112 10,2 C 20,5 C 3,4 km/h (1 Bft)
30.05.2012 10:15 20,0 C 53 % 0,0 l/m 2,4 km/h (1 Bft) W-SW 247 10,1 C 20,7 C 2,9 km/h (1 Bft)
30.05.2012 10:20 20,2 C 51 % 0,0 l/m 2,6 km/h (1 Bft) S 180 9,7 C 21,1 C 1,8 km/h (1 Bft)
30.05.2012 10:25 19,9 C 51 % 0,0 l/m 3,2 km/h (1 Bft) SO 135 9,5 C 21,2 C 6,6 km/h (2 Bft)
30.05.2012 10:30 19,5 C 52 % 0,0 l/m 3,9 km/h (1 Bft) SO 135 9,4 C 20,8 C 4,5 km/h (1 Bft)
30.05.2012 10:35 19,5 C 54 % 0,0 l/m 3,5 km/h (1 Bft) SO 135 9,9 C 20,5 C 2,7 km/h (1 Bft)
30.05.2012 10:40 19,6 C 53 % 0,0 l/m 2,7 km/h (1 Bft) O-SO 112 9,8 C 20,4 C 2,3 km/h (1 Bft)
30.05.2012 10:45 19,5 C 55 % 0,0 l/m 2,6 km/h (1 Bft) S-SO 157 10,2 C 20,4 C 0,0 km/h (0 Bft)
30.05.2012 10:50 19,7 C 55 % 0,0 l/m 1,1 km/h (1 Bft) SO 135 10,4 C 20,7 C 1,8 km/h (1 Bft)
30.05.2012 10:55 19,6 C 54 % 0,0 l/m 0,8 km/h (0 Bft) O-SO 112 10,0 C 20,7 C 1,8 km/h (1 Bft)
30.05.2012 11:00 19,4 C 54 % 0,0 l/m 2,3 km/h (1 Bft) S-SO 157 9,8 C 20,5 C 2,3 km/h (1 Bft)
30.05.2012 11:05 19,3 C 53 % 0,0 l/m 2,7 km/h (1 Bft) S 180 9,5 C 20,3 C 2,7 km/h (1 Bft)
30.05.2012 11:10 19,5 C 52 % 0,0 l/m 2,6 km/h (1 Bft) O 90 9,4 C 20,3 C 3,4 km/h (1 Bft)
30.05.2012 11:15 19,5 C 53 % 0,0 l/m 2,6 km/h (1 Bft) S 180 9,7 C 20,4 C 1,9 km/h (1 Bft)
30.05.2012 11:20 19,5 C 54 % 0,0 l/m 2,4 km/h (1 Bft) S-SW 202 9,9 C 20,5 C 1,8 km/h (1 Bft)
30.05.2012 11:25 19,5 C 53 % 0,0 l/m 2,1 km/h (1 Bft) S 180 9,7 C 20,5 C 2,3 km/h (1 Bft)
30.05.2012 11:30 19,8 C 53 % 0,0 l/m 2,3 km/h (1 Bft) S 180 9,9 C 20,7 C 2,6 km/h (1 Bft)
30.05.2012 11:35 19,9 C 54 % 0,0 l/m 2,7 km/h (1 Bft) S 180 10,3 C 20,8 C 4,5 km/h (1 Bft)
30.05.2012 11:40 19,6 C 55 % 0,0 l/m 3,5 km/h (1 Bft) W 270 10,3 C 20,8 C 5,3 km/h (1 Bft)
30.05.2012 11:45 19,2 C 57 % 0,0 l/m 4,0 km/h (1 Bft) W-SW 247 10,5 C 20,5 C 4,2 km/h (1 Bft)
30.05.2012 11:50 19,2 C 58 % 0,0 l/m 4,3 km/h (1 Bft) W-NW 292 10,7 C 20,4 C 6,4 km/h (2 Bft)
30.05.2012 11:55 19,3 C 58 % 0,0 l/m 5,6 km/h (1 Bft) W-NW 292 10,8 C 20,2 C 7,2 km/h (2 Bft)
30.05.2012 12:00 20,4 C 54 % 0,0 l/m 6,9 km/h (2 Bft) W 270 10,8 C 21,2 C 11,1 km/h (2 Bft)
30.05.2012 12:05 21,7 C 55 % 0,0 l/m 6,4 km/h (2 Bft) S-SW 202 12,3 C 22,0 C 4,0 km/h (1 Bft)
30.05.2012 12:10 20,3 C 55 % 0,0 l/m 5,5 km/h (1 Bft) N 360 11,0 C 22,5 C 6,0 km/h (2 Bft)
30.05.2012 12:15 22,2 C 51 % 0,0 l/m 4,5 km/h (1 Bft) W-NW 292 11,6 C 22,9 C 5,5 km/h (1 Bft)
30.05.2012 12:20 20,5 C 52 % 0,0 l/m 3,9 km/h (1 Bft) W-NW 292 10,3 C 23,4 C 5,8 km/h (2 Bft)
30.05.2012 12:25 19,6 C 55 % 0,0 l/m 4,8 km/h (1 Bft) S 180 10,3 C 22,2 C 7,9 km/h (2 Bft)
30.05.2012 12:30 19,5 C 55 % 0,0 l/m 3,5 km/h (1 Bft) N-NW 337 10,2 C 21,1 C 0,0 km/h (0 Bft)
30.05.2012 12:35 21,5 C 57 % 0,0 l/m 1,9 km/h (1 Bft) W 270 12,6 C 21,6 C 3,1 km/h (1 Bft)
30.05.2012 12:40 23,9 C 46 % 0,0 l/m 2,3 km/h (1 Bft) S 180 11,6 C 24,5 C 4,5 km/h (1 Bft)
30.05.2012 12:45 23,7 C 46 % 0,0 l/m 2,9 km/h (1 Bft) S 180 11,4 C 25,6 C 3,1 km/h (1 Bft)
30.05.2012 12:50 21,1 C 45 % 0,0 l/m 5,0 km/h (1 Bft) SO 135 8,7 C 24,1 C 14,2 km/h (3 Bft)
30.05.2012 12:55 20,7 C 47 % 0,0 l/m 6,3 km/h (2 Bft) S-SO 157 9,0 C 22,8 C 4,7 km/h (1 Bft)
30.05.2012 13:00 22,2 C 42 % 0,0 l/m 5,8 km/h (2 Bft) O-SO 112 8,7 C 23,3 C 6,0 km/h (2 Bft)
30.05.2012 13:05 21,5 C 46 % 0,0 l/m 4,5 km/h (1 Bft) S-SO 157 9,4 C 23,3 C 3,9 km/h (1 Bft)
30.05.2012 13:10 22,1 C 46 % 0,0 l/m 6,1 km/h (2 Bft) S-SO 157 9,9 C 22,7 C 7,7 km/h (2 Bft)
30.05.2012 13:15 23,2 C 43 % 0,0 l/m 6,8 km/h (2 Bft) S-SO 157 9,9 C 23,3 C 7,4 km/h (2 Bft)
30.05.2012 13:20 24,6 C 40 % 0,0 l/m 6,3 km/h (2 Bft) S-SW 202 10,1 C 25,0 C 11,1 km/h (2 Bft)
30.05.2012 13:25 24,2 C 41 % 0,0 l/m 6,6 km/h (2 Bft) S 180 10,1 C 25,5 C 8,9 km/h (2 Bft)
30.05.2012 13:30 22,2 C 42 % 0,0 l/m 6,9 km/h (2 Bft) S-SO 157 8,7 C 24,3 C 6,1 km/h (2 Bft)
30.05.2012 13:35 22,2 C 46 % 0,0 l/m 6,6 km/h (2 Bft) SO 135 10,0 C 23,7 C 8,9 km/h (2 Bft)
30.05.2012 13:40 21,9 C 45 % 0,0 l/m 5,8 km/h (2 Bft) S 180 9,4 C 23,2 C 4,3 km/h (1 Bft)
30.05.2012 13:45 21,8 C 46 % 0,0 l/m 5,3 km/h (1 Bft) S-SO 157 9,7 C 22,9 C 3,5 km/h (1 Bft)
30.05.2012 13:50 22,0 C 44 % 0,0 l/m 6,3 km/h (2 Bft) SO 135 9,2 C 22,5 C 14,3 km/h (3 Bft)
30.05.2012 13:55 23,8 C 41 % 0,0 l/m 6,9 km/h (2 Bft) O-SO 112 9,7 C 23,3 C 6,1 km/h (2 Bft)
30.05.2012 14:00 24,1 C 38 % 0,0 l/m 7,4 km/h (2 Bft) O 90 8,9 C 24,7 C 16,1 km/h (3 Bft)
30.05.2012 14:05 22,7 C 39 % 0,0 l/m 8,0 km/h (2 Bft) S-SO 157 8,0 C 24,2 C 7,9 km/h (2 Bft)
30.05.2012 14:10 22,9 C 39 % 0,0 l/m 7,1 km/h (2 Bft) S-SO 157 8,2 C 23,6 C 5,0 km/h (1 Bft)
30.05.2012 14:15 23,4 C 40 % 0,0 l/m 5,6 km/h (1 Bft) SW 225 9,0 C 24,5 C 5,0 km/h (1 Bft)
30.05.2012 14:20 22,4 C 44 % 0,0 l/m 6,3 km/h (2 Bft) S-SO 157 9,5 C 23,8 C 7,2 km/h (2 Bft)
30.05.2012 14:25 22,1 C 45 % 0,0 l/m 6,6 km/h (2 Bft) S-SW 202 9,6 C 23,4 C 8,7 km/h (2 Bft)
30.05.2012 14:30 21,9 C 46 % 0,0 l/m 6,1 km/h (2 Bft) S-SW 202 9,7 C 23,0 C 7,4 km/h (2 Bft)
30.05.2012 14:35 22,8 C 45 % 0,0 l/m 5,0 km/h (1 Bft) NW 315 10,2 C 23,0 C 4,5 km/h (1 Bft)
30.05.2012 14:40 22,1 C 44 % 0,0 l/m 4,5 km/h (1 Bft) W-SW 247 9,3 C 24,0 C 7,4 km/h (2 Bft)
30.05.2012 14:45 21,7 C 46 % 0,0 l/m 4,2 km/h (1 Bft) S 180 9,6 C 23,4 C 3,9 km/h (1 Bft)
30.05.2012 14:50 20,9 C 49 % 0,0 l/m 3,9 km/h (1 Bft) S 180 9,8 C 22,3 C 8,0 km/h (2 Bft)
30.05.2012 14:55 19,6 C 50 % 0,0 l/m 6,4 km/h (2 Bft) SO 135 8,9 C 21,3 C 7,1 km/h (2 Bft)
30.05.2012 15:00 18,9 C 54 % 0,0 l/m 9,5 km/h (2 Bft) W-SW 247 9,4 C 18,5 C 22,0 km/h (4 Bft)
30.05.2012 15:05 18,8 C 55 % 0,0 l/m 8,9 km/h (2 Bft) S 180 9,6 C 18,2 C 15,4 km/h (3 Bft)
30.05.2012 15:10 18,8 C 54 % 0,0 l/m 8,9 km/h (2 Bft) SO 135 9,3 C 17,7 C 23,3 km/h (4 Bft)
30.05.2012 15:15 19,1 C 54 % 0,0 l/m 8,9 km/h (2 Bft) O-SO 112 9,6 C 17,7 C 8,5 km/h (2 Bft)
30.05.2012 15:20 19,0 C 54 % 0,0 l/m 7,2 km/h (2 Bft) SO 135 9,5 C 18,7 C 4,8 km/h (1 Bft)
30.05.2012 15:25 19,1 C 54 % 0,0 l/m 6,1 km/h (2 Bft) O-NO 67 9,6 C 19,2 C 5,5 km/h (1 Bft)
30.05.2012 15:30 18,8 C 56 % 0,0 l/m 4,8 km/h (1 Bft) O-SO 112 9,8 C 19,2 C 6,6 km/h (2 Bft)
30.05.2012 15:35 19,0 C 56 % 0,0 l/m 4,8 km/h (1 Bft) SO 135 10,0 C 19,3 C 3,1 km/h (1 Bft)
30.05.2012 15:40 19,9 C 53 % 0,0 l/m 3,5 km/h (1 Bft) SO 135 10,0 C 20,2 C 4,8 km/h (1 Bft)
30.05.2012 15:45 21,4 C 51 % 0,0 l/m 3,2 km/h (1 Bft) SO 135 10,8 C 21,3 C 3,9 km/h (1 Bft)
30.05.2012 15:50 21,0 C 49 % 0,0 l/m 5,1 km/h (1 Bft) O-SO 112 9,9 C 22,3 C 10,6 km/h (2 Bft)
30.05.2012 15:55 21,9 C 48 % 0,0 l/m 5,3 km/h (1 Bft) SO 135 10,4 C 22,2 C 5,3 km/h (1 Bft)
30.05.2012 16:00 22,8 C 46 % 0,0 l/m 5,6 km/h (1 Bft) S 180 10,6 C 23,2 C 3,5 km/h (1 Bft)
30.05.2012 16:05 22,9 C 42 % 0,0 l/m 5,6 km/h (1 Bft) O-SO 112 9,3 C 24,0 C 3,9 km/h (1 Bft)
30.05.2012 16:10 22,9 C 41 % 0,0 l/m 4,5 km/h (1 Bft) S 180 8,9 C 24,6 C 7,4 km/h (2 Bft)
30.05.2012 16:15 22,6 C 41 % 0,0 l/m 4,7 km/h (1 Bft) S-SO 157 8,7 C 24,7 C 10,6 km/h (2 Bft)
30.05.2012 16:20 22,9 C 39 % 0,0 l/m 6,1 km/h (2 Bft) S-SO 157 8,2 C 24,7 C 6,1 km/h (2 Bft)
30.05.2012 16:25 22,9 C 41 % 0,0 l/m 6,1 km/h (2 Bft) W 270 8,9 C 24,9 C 3,1 km/h (1 Bft)
30.05.2012 16:30 22,8 C 41 % 0,0 l/m 4,8 km/h (1 Bft) S-SO 157 8,9 C 25,5 C 9,2 km/h (2 Bft)
30.05.2012 16:35 23,1 C 41 % 0,0 l/m 4,5 km/h (1 Bft) SO 135 9,1 C 25,6 C 6,8 km/h (2 Bft)
30.05.2012 16:40 22,6 C 44 % 0,0 l/m 5,6 km/h (1 Bft) SO 135 9,7 C 25,3 C 8,2 km/h (2 Bft)
30.05.2012 16:45 22,4 C 44 % 0,0 l/m 6,8 km/h (2 Bft) O 90 9,5 C 24,9 C 5,1 km/h (1 Bft)
30.05.2012 16:50 22,3 C 47 % 0,0 l/m 7,6 km/h (2 Bft) S-SO 157 10,4 C 24,9 C 5,0 km/h (1 Bft)
30.05.2012 16:55 22,2 C 47 % 0,0 l/m 7,4 km/h (2 Bft) SO 135 10,3 C 25,0 C 10,0 km/h (2 Bft)
30.05.2012 17:00 22,2 C 47 % 0,0 l/m 7,2 km/h (2 Bft) SO 135 10,3 C 24,8 C 5,6 km/h (1 Bft)
30.05.2012 17:05 22,3 C 47 % 0,0 l/m 7,2 km/h (2 Bft) O-SO 112 10,4 C 24,8 C 10,9 km/h (2 Bft)
30.05.2012 17:10 21,9 C 45 % 0,0 l/m 8,0 km/h (2 Bft) O-SO 112 9,4 C 24,4 C 11,7 km/h (2 Bft)
30.05.2012 17:15 21,9 C 46 % 0,0 l/m 8,9 km/h (2 Bft) SO 135 9,7 C 24,0 C 9,8 km/h (2 Bft)
30.05.2012 17:20 21,6 C 46 % 0,0 l/m 9,0 km/h (2 Bft) SO 135 9,5 C 24,0 C 8,5 km/h (2 Bft)
30.05.2012 17:25 21,7 C 46 % 0,0 l/m 8,2 km/h (2 Bft) S 180 9,6 C 24,4 C 5,5 km/h (1 Bft)
30.05.2012 17:30 21,5 C 45 % 0,0 l/m 7,2 km/h (2 Bft) W-NW 292 9,1 C 24,8 C 5,1 km/h (1 Bft)
30.05.2012 17:35 21,5 C 46 % 0,0 l/m 6,4 km/h (2 Bft) S-SO 157 9,4 C 25,0 C 4,8 km/h (1 Bft)
30.05.2012 17:40 21,3 C 45 % 0,0 l/m 5,5 km/h (1 Bft) SO 135 8,9 C 25,0 C 7,9 km/h (2 Bft)
30.05.2012 17:45 21,4 C 45 % 0,0 l/m 6,0 km/h (2 Bft) SO 135 9,0 C 25,0 C 9,0 km/h (2 Bft)
30.05.2012 17:50 20,8 C 47 % 0,0 l/m 5,6 km/h (1 Bft) S 180 9,1 C 24,2 C 4,8 km/h (1 Bft)
30.05.2012 17:55 21,1 C 47 % 0,0 l/m 5,3 km/h (1 Bft) S 180 9,3 C 24,0 C 8,2 km/h (2 Bft)
30.05.2012 18:00 21,3 C 45 % 0,0 l/m 4,5 km/h (1 Bft) SO 135 8,9 C 24,5 C 5,8 km/h (2 Bft)
30.05.2012 18:05 21,3 C 45 % 0,0 l/m 5,0 km/h (1 Bft) S 180 8,9 C 24,5 C 7,9 km/h (2 Bft)
30.05.2012 18:10 21,4 C 46 % 0,0 l/m 5,1 km/h (1 Bft) S 180 9,3 C 24,6 C 3,7 km/h (1 Bft)
30.05.2012 18:15 21,2 C 47 % 0,0 l/m 4,5 km/h (1 Bft) N-NO 22 9,4 C 24,4 C 5,5 km/h (1 Bft)
30.05.2012 18:20 21,1 C 46 % 0,0 l/m 5,0 km/h (1 Bft) S 180 9,0 C 24,0 C 4,5 km/h (1 Bft)
30.05.2012 18:25 21,3 C 45 % 0,0 l/m 5,8 km/h (2 Bft) SO 135 8,9 C 23,7 C 9,7 km/h (2 Bft)
30.05.2012 18:30 21,4 C 45 % 0,0 l/m 5,5 km/h (1 Bft) SO 135 9,0 C 24,2 C 7,2 km/h (2 Bft)
30.05.2012 18:35 21,3 C 46 % 0,0 l/m 5,5 km/h (1 Bft) O-SO 112 9,2 C 24,2 C 5,3 km/h (1 Bft)
30.05.2012 18:40 20,5 C 46 % 0,0 l/m 4,0 km/h (1 Bft) S-SO 157 8,5 C 23,6 C 4,5 km/h (1 Bft)
30.05.2012 18:45 20,0 C 48 % 0,0 l/m 3,5 km/h (1 Bft) S-SW 202 8,7 C 22,7 C 5,3 km/h (1 Bft)
30.05.2012 18:50 19,6 C 49 % 0,0 l/m 3,7 km/h (1 Bft) S-SO 157 8,6 C 21,4 C 6,4 km/h (2 Bft)
30.05.2012 18:55 19,2 C 49 % 0,0 l/m 4,0 km/h (1 Bft) S 180 8,2 C 20,9 C 13,2 km/h (3 Bft)
30.05.2012 19:00 19,0 C 50 % 0,0 l/m 6,0 km/h (2 Bft) O-SO 112 8,3 C 20,3 C 9,8 km/h (2 Bft)
30.05.2012 19:05 19,0 C 50 % 0,0 l/m 6,8 km/h (2 Bft) SO 135 8,3 C 19,9 C 10,0 km/h (2 Bft)
30.05.2012 19:10 18,7 C 52 % 0,0 l/m 6,1 km/h (2 Bft) SO 135 8,6 C 19,7 C 5,5 km/h (1 Bft)
30.05.2012 19:15 18,6 C 54 % 0,0 l/m 6,3 km/h (2 Bft) O-SO 112 9,1 C 19,5 C 14,0 km/h (3 Bft)
30.05.2012 19:20 18,3 C 54 % 0,0 l/m 6,3 km/h (2 Bft) SO 135 8,8 C 19,2 C 7,6 km/h (2 Bft)
30.05.2012 19:25 18,1 C 55 % 0,0 l/m 6,6 km/h (2 Bft) S-SO 157 8,9 C 18,8 C 7,2 km/h (2 Bft)
30.05.2012 19:30 17,8 C 55 % 0,0 l/m 5,6 km/h (1 Bft) SO 135 8,6 C 18,6 C 3,9 km/h (1 Bft)
30.05.2012 19:35 17,7 C 55 % 0,0 l/m 4,2 km/h (1 Bft) O-SO 112 8,5 C 18,5 C 0,0 km/h (0 Bft)
30.05.2012 19:40 17,7 C 55 % 0,0 l/m 1,8 km/h (1 Bft) NO 45 8,5 C 18,4 C 4,5 km/h (1 Bft)
30.05.2012 19:45 17,7 C 56 % 0,0 l/m 1,6 km/h (1 Bft) N-NW 337 8,8 C 18,4 C 1,6 km/h (1 Bft)
30.05.2012 19:50 17,6 C 56 % 0,0 l/m 1,4 km/h (1 Bft) O-NO 67 8,7 C 18,4 C 0,0 km/h (0 Bft)
30.05.2012 19:55 17,4 C 56 % 0,0 l/m 1,0 km/h (0 Bft) O-SO 112 8,5 C 18,2 C 0,0 km/h (0 Bft)
30.05.2012 20:00 17,3 C 56 % 0,0 l/m 0,8 km/h (0 Bft) S-SO 157 8,4 C 18,1 C 2,3 km/h (1 Bft)
30.05.2012 20:05 17,2 C 57 % 0,0 l/m 1,0 km/h (0 Bft) O-NO 67 8,6 C 17,9 C 1,9 km/h (1 Bft)
30.05.2012 20:10 17,1 C 57 % 0,0 l/m 0,8 km/h (0 Bft) S-SO 157 8,5 C 18,1 C 3,4 km/h (1 Bft)
30.05.2012 20:15 17,1 C 57 % 0,0 l/m 0,3 km/h (0 Bft) N-NO 22 8,5 C 18,4 C 0,0 km/h (0 Bft)
30.05.2012 20:20 17,2 C 56 % 0,0 l/m 0,6 km/h (0 Bft) NO 45 8,3 C 18,3 C 0,0 km/h (0 Bft)
30.05.2012 20:25 17,0 C 57 % 0,0 l/m 0,3 km/h (0 Bft) SO 135 8,4 C 18,1 C 0,0 km/h (0 Bft)
30.05.2012 20:30 16,5 C 58 % 0,0 l/m 0,5 km/h (0 Bft) SO 135 8,2 C 17,8 C 0,0 km/h (0 Bft)
30.05.2012 20:35 16,4 C 58 % 0,0 l/m 1,0 km/h (0 Bft) N-NO 22 8,1 C 17,5 C 3,7 km/h (1 Bft)
30.05.2012 20:40 16,2 C 58 % 0,0 l/m 1,9 km/h (1 Bft) O-SO 112 7,9 C 17,1 C 5,8 km/h (2 Bft)
30.05.2012 20:45 16,1 C 58 % 0,0 l/m 2,7 km/h (1 Bft) SO 135 7,8 C 17,0 C 6,8 km/h (2 Bft)
30.05.2012 20:50 16,0 C 58 % 0,0 l/m 3,5 km/h (1 Bft) NO 45 7,7 C 16,7 C 3,2 km/h (1 Bft)
30.05.2012 20:55 15,8 C 58 % 0,0 l/m 3,2 km/h (1 Bft) N-NO 22 7,6 C 16,5 C 2,4 km/h (1 Bft)
30.05.2012 21:00 15,8 C 58 % 0,0 l/m 1,6 km/h (1 Bft) NO 45 7,6 C 16,3 C 1,8 km/h (1 Bft)
30.05.2012 21:05 15,7 C 59 % 0,0 l/m 0,5 km/h (0 Bft) NW 315 7,7 C 15,9 C 0,0 km/h (0 Bft)
30.05.2012 21:10 15,6 C 59 % 0,0 l/m 0,2 km/h (0 Bft) W-NW 292 7,6 C 15,6 C 0,0 km/h (0 Bft)
30.05.2012 21:15 15,4 C 60 % 0,0 l/m 0,0 km/h (0 Bft) NO 45 7,7 C 15,5 C 0,0 km/h (0 Bft)
30.05.2012 21:20 15,1 C 62 % 0,0 l/m 0,3 km/h (0 Bft) N-NO 22 7,9 C 15,3 C 1,9 km/h (1 Bft)
30.05.2012 21:25 15,0 C 62 % 0,0 l/m 0,3 km/h (0 Bft) N-NO 22 7,8 C 15,0 C 0,0 km/h (0 Bft)
30.05.2012 21:30 14,7 C 63 % 0,0 l/m 0,3 km/h (0 Bft) N 360 7,7 C 14,9 C 0,0 km/h (0 Bft)
30.05.2012 21:35 14,7 C 63 % 0,0 l/m 0,3 km/h (0 Bft) N 360 7,7 C 14,7 C 0,0 km/h (0 Bft)
30.05.2012 21:40 14,6 C 63 % 0,0 l/m 0,2 km/h (0 Bft) NO 45 7,6 C 14,5 C 0,0 km/h (0 Bft)
30.05.2012 21:45 14,5 C 63 % 0,0 l/m 0,0 km/h (0 Bft) O-SO 112 7,5 C 14,5 C 0,0 km/h (0 Bft)
30.05.2012 21:50 13,8 C 65 % 0,0 l/m 0,0 km/h (0 Bft) NO 45 7,3 C 14,0 C 0,0 km/h (0 Bft)
30.05.2012 21:55 13,5 C 65 % 0,0 l/m 0,0 km/h (0 Bft) S-SW 202 7,1 C 13,7 C 0,0 km/h (0 Bft)
30.05.2012 22:00 13,6 C 67 % 0,0 l/m 0,2 km/h (0 Bft) N-NO 22 7,6 C 13,5 C 1,9 km/h (1 Bft)
30.05.2012 22:05 14,0 C 66 % 0,0 l/m 0,2 km/h (0 Bft) NO 45 7,7 C 13,5 C 0,0 km/h (0 Bft)
30.05.2012 22:10 14,4 C 66 % 0,0 l/m 0,2 km/h (0 Bft) N 360 8,1 C 13,7 C 0,0 km/h (0 Bft)
30.05.2012 22:15 14,1 C 66 % 0,0 l/m 0,0 km/h (0 Bft) N-NO 22 7,8 C 13,7 C 0,0 km/h (0 Bft)
30.05.2012 22:20 13,9 C 67 % 0,0 l/m 0,0 km/h (0 Bft) N-NO 22 7,9 C 13,8 C 0,0 km/h (0 Bft)
30.05.2012 22:25 14,0 C 68 % 0,0 l/m 0,2 km/h (0 Bft) N-NO 22 8,2 C 13,8 C 0,0 km/h (0 Bft)
30.05.2012 22:30 13,8 C 69 % 0,0 l/m 0,2 km/h (0 Bft) W-NW 292 8,2 C 13,8 C 0,0 km/h (0 Bft)
30.05.2012 22:35 13,5 C 69 % 0,0 l/m 0,0 km/h (0 Bft) O-SO 112 7,9 C 13,7 C 0,0 km/h (0 Bft)
30.05.2012 22:40 13,5 C 69 % 0,0 l/m 0,0 km/h (0 Bft) NO 45 7,9 C 13,5 C 0,0 km/h (0 Bft)
30.05.2012 22:45 13,6 C 69 % 0,0 l/m 0,0 km/h (0 Bft) N-NO 22 8,0 C 13,5 C 0,0 km/h (0 Bft)
30.05.2012 22:50 13,5 C 70 % 0,0 l/m 0,0 km/h (0 Bft) N-NO 22 8,1 C 13,5 C 0,0 km/h (0 Bft)
30.05.2012 22:55 13,6 C 70 % 0,0 l/m 0,2 km/h (0 Bft) NO 45 8,2 C 13,5 C 0,0 km/h (0 Bft)
30.05.2012 23:00 13,6 C 70 % 0,0 l/m 0,2 km/h (0 Bft) N-NO 22 8,2 C 13,6 C 0,0 km/h (0 Bft)
30.05.2012 23:05 13,5 C 70 % 0,0 l/m 0,0 km/h (0 Bft) S 180 8,1 C 13,5 C 0,0 km/h (0 Bft)
30.05.2012 23:10 13,4 C 71 % 0,0 l/m 0,0 km/h (0 Bft) S 180 8,3 C 13,1 C 0,0 km/h (0 Bft)
30.05.2012 23:15 13,1 C 72 % 0,0 l/m 0,0 km/h (0 Bft) N 360 8,2 C 12,9 C 0,0 km/h (0 Bft)
30.05.2012 23:20 12,9 C 77 % 0,0 l/m 0,5 km/h (0 Bft) NO 45 9,0 C 12,6 C 1,8 km/h (1 Bft)
30.05.2012 23:25 12,9 C 79 % 0,0 l/m 1,1 km/h (1 Bft) NO 45 9,3 C 12,5 C 4,0 km/h (1 Bft)
30.05.2012 23:30 12,5 C 78 % 0,0 l/m 0,8 km/h (0 Bft) N 360 8,8 C 12,3 C 0,0 km/h (0 Bft)
30.05.2012 23:35 12,1 C 78 % 0,0 l/m 0,6 km/h (0 Bft) N-NO 22 8,4 C 12,1 C 0,0 km/h (0 Bft)
30.05.2012 23:40 12,2 C 79 % 0,0 l/m 0,3 km/h (0 Bft) NO 45 8,7 C 11,8 C 0,0 km/h (0 Bft)
30.05.2012 23:45 11,9 C 79 % 0,0 l/m 0,2 km/h (0 Bft) N-NW 337 8,4 C 11,6 C 0,0 km/h (0 Bft)
30.05.2012 23:50 11,5 C 79 % 0,0 l/m 0,0 km/h (0 Bft) N-NO 22 8,0 C 11,2 C 0,0 km/h (0 Bft)
30.05.2012 23:55 11,6 C 80 % 0,0 l/m 0,2 km/h (0 Bft) NO 45 8,3 C 11,1 C 0,0 km/h (0 Bft)
_ Min-Zeit 04:20 14:00 - 23:50 - - 04:15 04:20 23:55
Minimum _ 8,5 C 38 % - 0,0 km/h (0 Bft) - - 5,2 C 8,2 C 0,0 km/h (0 Bft)
_ Max-Zeit 13:20 06:00 23:55 15:00 - - 12:35 08:55 15:10
Maximum _ 24,6 C 82 % 0,0 l/m 9,5 km/h
W-SW (2 Bft)
- - 12,6 C 26,7 C 23,3 km/h
SO (4 Bft)
Durchschnitt _ 16,4 C 61 % #0,0 l/m 2,5 km/h (1 Bft) SO - 8,3 C 17,2 C 3,3 km/h (1 Bft)